| time (UTC) | temp C | wind direction | speed KPH | gust KPH | rain 1hr cm | rain 24hr cm | rain mn cm | humidity % | barometer mb |
| 20260507145027 | 9 | 126 | 3.2 | 3.2 | 0.00 | 0.00 | 0.00 | 41 | 1013.2 |
| 20260507144523 | 8 | 206 | 3.2 | 3.2 | 0.00 | 0.00 | 0.00 | 40 | 1013.3 |
| 20260507144021 | 8 | 181 | 3.2 | 3.2 | 0.00 | 0.00 | 0.00 | 43 | 1013.2 |
| 20260507143518 | 8 | 210 | 3.2 | 4.8 | 0.00 | 0.00 | 0.00 | 44 | 1013.3 |
| 20260507143015 | 7 | 185 | 1.6 | 4.8 | 0.00 | 0.00 | 0.00 | 44 | 1013.4 |
| 20260507142510 | 7 | 174 | 1.6 | 8.0 | 0.00 | 0.00 | 0.00 | 45 | 1013.4 |
| 20260507142007 | 7 | 215 | 3.2 | 8.0 | 0.00 | 0.00 | 0.00 | 47 | 1013.4 |
| 20260507141503 | 7 | 188 | 4.8 | 8.0 | 0.00 | 0.00 | 0.00 | 46 | 1013.4 |
| 20260507141000 | 8 | 206 | 3.2 | 3.2 | 0.00 | 0.00 | 0.00 | 45 | 1013.7 |
| 20260507140456 | 7 | 190 | 1.6 | 3.2 | 0.00 | 0.00 | 0.00 | 44 | 1013.5 |
| 20260507135954 | 7 | 227 | 4.8 | 4.8 | 0.00 | 0.00 | 0.00 | 48 | 1013.7 |
| 20260507135451 | 7 | 226 | 6.4 | 8.0 | 0.00 | 0.00 | 0.00 | 48 | 1013.5 |
| 20260507134948 | 7 | 229 | 3.2 | 8.0 | 0.00 | 0.00 | 0.00 | 51 | 1013.7 |
| 20260507134444 | 7 | 193 | 0.0 | 3.2 | 0.00 | 0.00 | 0.00 | 49 | 1013.7 |
| 20260507133941 | 7 | 194 | 1.6 | 4.8 | 0.00 | 0.00 | 0.00 | 52 | 1013.8 |
| 20260507133437 | 7 | 197 | 0.0 | 3.2 | 0.00 | 0.00 | 0.00 | 57 | 1013.8 |
| 20260507132936 | 6 | 194 | 0.0 | 1.6 | 0.00 | 0.00 | 0.00 | 59 | 1013.8 |
| 20260507132431 | 6 | 191 | 0.0 | 4.8 | 0.00 | 0.00 | 0.00 | 58 | 1013.7 |
| 20260507131928 | 6 | 183 | 0.0 | 0.0 | 0.00 | 0.00 | 0.00 | 57 | 1013.9 |
| 20260507131425 | 6 | 202 | 3.2 | 4.8 | 0.00 | 0.00 | 0.00 | 59 | 1013.7 |
| 20260507130922 | 6 | 178 | 0.0 | 0.0 | 0.00 | 0.00 | 0.00 | 62 | 1013.9 |
| 20260507130419 | 5 | 190 | 0.0 | 0.0 | 0.00 | 0.00 | 0.00 | 63 | 1013.7 |
| 20260507125918 | 5 | 189 | 0.0 | 1.6 | 0.00 | 0.00 | 0.00 | 67 | 1013.9 |
| 20260507125415 | 4 | 189 | 0.0 | 0.0 | 0.00 | 0.00 | 0.00 | 68 | 1013.9 |
| 20260507124913 | 5 | 189 | 0.0 | 0.0 | 0.00 | 0.00 | 0.00 | 68 | 1014.0 |
| 20260507124408 | 4 | 190 | 0.0 | 0.0 | 0.00 | 0.00 | 0.00 | 70 | 1014.0 |
| 20260507123907 | 4 | 189 | 0.0 | 0.0 | 0.00 | 0.00 | 0.00 | 70 | 1013.9 |
| 20260507123404 | 3 | 190 | 0.0 | 0.0 | 0.00 | 0.00 | 0.00 | 75 | 1014.0 |
| 20260507122900 | 2 | 190 | 0.0 | 0.0 | 0.00 | 0.00 | 0.00 | 79 | 1014.0 |
| 20260507122355 | 1 | 190 | 0.0 | 0.0 | 0.00 | 0.00 | 0.00 | 81 | 1014.0 |
| 20260507121852 | 1 | 190 | 0.0 | 0.0 | 0.00 | 0.00 | 0.00 | 83 | 1014.0 |
| 20260507121347 | 1 | 193 | 0.0 | 0.0 | 0.00 | 0.00 | 0.00 | 86 | 1014.1 |
| 20260507120844 | 0 | 194 | 0.0 | 0.0 | 0.00 | 0.00 | 0.00 | 87 | 1014.1 |
| 20260507120341 | 0 | 194 | 0.0 | 0.0 | 0.00 | 0.00 | 0.00 | 88 | 1014.1 |
| 20260507115837 | 0 | 194 | 0.0 | 0.0 | 0.00 | 0.00 | 0.00 | 89 | 1013.9 |
| 20260507115332 | -1 | 195 | 0.0 | 0.0 | 0.00 | 0.00 | 0.00 | 90 | 1014.1 |
| 20260507114828 | -1 | 195 | 0.0 | 0.0 | 0.00 | 0.00 | 0.00 | 90 | 1014.1 |
| 20260507114326 | -1 | 195 | 0.0 | 0.0 | 0.00 | 0.00 | 0.00 | 90 | 1014.0 |
| 20260507113823 | -1 | 195 | 0.0 | 0.0 | 0.00 | 0.00 | 0.00 | 90 | 1014.0 |
| 20260507113320 | -1 | 195 | 0.0 | 0.0 | 0.00 | 0.00 | 0.00 | 90 | 1013.8 |
| 20260507112818 | -1 | 195 | 0.0 | 0.0 | 0.00 | 0.00 | 0.00 | 90 | 1013.9 |
| 20260507112314 | -1 | 195 | 0.0 | 0.0 | 0.00 | 0.00 | 0.00 | 90 | 1014.0 |
| 20260507111812 | -2 | 196 | 0.0 | 0.0 | 0.00 | 0.00 | 0.00 | 90 | 1013.9 |
| 20260507111309 | -2 | 196 | 0.0 | 0.0 | 0.00 | 0.00 | 0.00 | 90 | 1013.9 |
| 20260507110805 | -2 | 197 | 0.0 | 0.0 | 0.00 | 0.00 | 0.00 | 90 | 1013.9 |
| 20260507110301 | -2 | 197 | 0.0 | 0.0 | 0.00 | 0.00 | 0.00 | 90 | 1014.0 |
| 20260507105758 | -1 | 197 | 0.0 | 0.0 | 0.00 | 0.00 | 0.00 | 90 | 1013.8 |
| 20260507105254 | -1 | 197 | 0.0 | 0.0 | 0.00 | 0.00 | 0.00 | 90 | 1013.9 |
| 20260507104752 | -1 | 197 | 0.0 | 0.0 | 0.00 | 0.00 | 0.00 | 90 | 1013.9 |
| 20260507104248 | -1 | 197 | 0.0 | 0.0 | 0.00 | 0.00 | 0.00 | 89 | 1013.9 |
| 20260507103744 | -1 | 197 | 0.0 | 0.0 | 0.00 | 0.00 | 0.00 | 89 | 1013.8 |
| 20260507103240 | -2 | 197 | 0.0 | 0.0 | 0.00 | 0.00 | 0.00 | 89 | 1013.9 |
| 20260507102737 | -1 | 197 | 0.0 | 0.0 | 0.00 | 0.00 | 0.00 | 89 | 1013.9 |
| 20260507102234 | -1 | 197 | 0.0 | 0.0 | 0.00 | 0.00 | 0.00 | 88 | 1013.8 |
| 20260507101730 | -1 | 197 | 0.0 | 0.0 | 0.00 | 0.00 | 0.00 | 88 | 1013.8 |
| 20260507101225 | -1 | 197 | 0.0 | 0.0 | 0.00 | 0.00 | 0.00 | 88 | 1013.9 |
| 20260507100722 | -1 | 197 | 0.0 | 0.0 | 0.00 | 0.00 | 0.00 | 87 | 1014.0 |
| 20260507100221 | -1 | 197 | 0.0 | 0.0 | 0.00 | 0.00 | 0.00 | 87 | 1013.8 |
| 20260507095719 | -1 | 196 | 0.0 | 0.0 | 0.00 | 0.00 | 0.00 | 85 | 1013.9 |
| 20260507095215 | -1 | 197 | 0.0 | 0.0 | 0.00 | 0.00 | 0.00 | 85 | 1014.0 |
| 20260507094712 | -1 | 196 | 0.0 | 0.0 | 0.00 | 0.00 | 0.00 | 84 | 1013.9 |
| 20260507094209 | 0 | 197 | 0.0 | 0.0 | 0.00 | 0.00 | 0.00 | 83 | 1014.0 |
| 20260507093705 | 0 | 199 | 0.0 | 0.0 | 0.00 | 0.00 | 0.00 | 83 | 1013.9 |
| 20260507093204 | 0 | 200 | 0.0 | 0.0 | 0.00 | 0.00 | 0.00 | 82 | 1014.2 |
| 20260507092701 | 0 | 203 | 0.0 | 0.0 | 0.00 | 0.00 | 0.00 | 80 | 1014.1 |
| 20260507092157 | 0 | 203 | 0.0 | 0.0 | 0.00 | 0.00 | 0.00 | 80 | 1014.0 |
| 20260507091654 | 0 | 203 | 0.0 | 0.0 | 0.00 | 0.00 | 0.00 | 80 | 1014.0 |
| 20260507091150 | 0 | 203 | 0.0 | 0.0 | 0.00 | 0.00 | 0.00 | 80 | 1013.9 |
| 20260507090646 | 0 | 203 | 0.0 | 0.0 | 0.00 | 0.00 | 0.00 | 79 | 1014.0 |
| 20260507090143 | 0 | 203 | 0.0 | 0.0 | 0.00 | 0.00 | 0.00 | 79 | 1014.0 |
| 20260507085640 | 0 | 203 | 0.0 | 0.0 | 0.00 | 0.00 | 0.00 | 79 | 1014.1 |
| 20260507085137 | 0 | 204 | 0.0 | 0.0 | 0.00 | 0.00 | 0.00 | 82 | 1014.1 |
| 20260507084634 | 0 | 204 | 0.0 | 0.0 | 0.00 | 0.00 | 0.00 | 84 | 1014.1 |
| 20260507084130 | 0 | 205 | 0.0 | 0.0 | 0.00 | 0.00 | 0.00 | 85 | 1014.1 |
| 20260507083627 | 0 | 202 | 0.0 | 0.0 | 0.00 | 0.00 | 0.00 | 84 | 1013.9 |
| 20260507083124 | 0 | 203 | 0.0 | 0.0 | 0.00 | 0.00 | 0.00 | 84 | 1014.0 |
| 20260507082620 | 0 | 203 | 0.0 | 0.0 | 0.00 | 0.00 | 0.00 | 83 | 1013.8 |
| 20260507082116 | 0 | 201 | 0.0 | 0.0 | 0.00 | 0.00 | 0.00 | 84 | 1014.1 |
| 20260507081613 | 0 | 203 | 0.0 | 1.6 | 0.00 | 0.00 | 0.00 | 86 | 1014.2 |
| 20260507081110 | 0 | 209 | 0.0 | 0.0 | 0.00 | 0.00 | 0.00 | 86 | 1014.0 |
| 20260507080606 | 0 | 201 | 0.0 | 0.0 | 0.00 | 0.00 | 0.00 | 86 | 1014.0 |
| 20260507080103 | 0 | 201 | 0.0 | 0.0 | 0.00 | 0.00 | 0.00 | 85 | 1014.0 |
| 20260507075557 | 0 | 201 | 0.0 | 0.0 | 0.00 | 0.00 | 0.00 | 85 | 1014.0 |
| 20260507075054 | 0 | 202 | 0.0 | 0.0 | 0.00 | 0.00 | 0.00 | 85 | 1014.1 |
| 20260507074551 | 0 | 205 | 0.0 | 0.0 | 0.00 | 0.00 | 0.00 | 85 | 1014.3 |
| 20260507074049 | 0 | 206 | 0.0 | 0.0 | 0.00 | 0.00 | 0.00 | 84 | 1014.3 |
| 20260507073545 | 0 | 206 | 0.0 | 0.0 | 0.00 | 0.00 | 0.00 | 84 | 1014.1 |
| 20260507073042 | 0 | 203 | 0.0 | 0.0 | 0.00 | 0.00 | 0.00 | 83 | 1014.1 |
| 20260507072539 | 0 | 203 | 0.0 | 0.0 | 0.00 | 0.00 | 0.00 | 83 | 1014.1 |
| 20260507072036 | 0 | 204 | 0.0 | 0.0 | 0.00 | 0.00 | 0.00 | 82 | 1014.2 |
| 20260507071534 | 0 | 200 | 0.0 | 0.0 | 0.00 | 0.00 | 0.00 | 81 | 1014.3 |
| 20260507071030 | 1 | 201 | 0.0 | 0.0 | 0.00 | 0.00 | 0.00 | 81 | 1014.4 |
| 20260507070527 | 1 | 201 | 0.0 | 0.0 | 0.00 | 0.00 | 0.00 | 80 | 1014.5 |
| 20260507070024 | 1 | 201 | 0.0 | 0.0 | 0.00 | 0.00 | 0.00 | 80 | 1014.4 |
| 20260507065520 | 1 | 200 | 0.0 | 0.0 | 0.00 | 0.00 | 0.00 | 79 | 1014.5 |
| 20260507065018 | 1 | 199 | 0.0 | 0.0 | 0.00 | 0.00 | 0.00 | 79 | 1014.8 |
| 20260507064516 | 1 | 199 | 0.0 | 0.0 | 0.00 | 0.00 | 0.00 | 78 | 1014.5 |
| 20260507064014 | 1 | 200 | 0.0 | 0.0 | 0.00 | 0.00 | 0.00 | 77 | 1014.7 |
| 20260507063511 | 1 | 200 | 0.0 | 0.0 | 0.00 | 0.00 | 0.00 | 77 | 1014.7 |
| 20260507063008 | 1 | 199 | 0.0 | 0.0 | 0.00 | 0.00 | 0.00 | 76 | 1014.6 |
| 20260507062504 | 1 | 199 | 0.0 | 0.0 | 0.00 | 0.00 | 0.00 | 76 | 1014.7 |
| 20260507062003 | 1 | 199 | 0.0 | 0.0 | 0.00 | 0.00 | 0.00 | 75 | 1014.8 |
| 20260507061500 | 2 | 199 | 0.0 | 0.0 | 0.00 | 0.00 | 0.00 | 74 | 1015.0 |
| 20260507060958 | 2 | 199 | 0.0 | 0.0 | 0.00 | 0.00 | 0.00 | 74 | 1014.8 |
| 20260507060455 | 2 | 199 | 0.0 | 0.0 | 0.00 | 0.00 | 0.00 | 74 | 1014.9 |
| 20260507055951 | 2 | 199 | 0.0 | 0.0 | 0.00 | 0.00 | 0.00 | 73 | 1014.8 |
| 20260507055446 | 2 | 199 | 0.0 | 0.0 | 0.00 | 0.00 | 0.00 | 71 | 1014.9 |
| 20260507054943 | 2 | 199 | 0.0 | 0.0 | 0.00 | 0.00 | 0.00 | 71 | 1014.8 |
| 20260507054439 | 3 | 199 | 0.0 | 0.0 | 0.00 | 0.00 | 0.00 | 70 | 1014.9 |
| 20260507053937 | 3 | 199 | 0.0 | 0.0 | 0.00 | 0.00 | 0.00 | 69 | 1014.8 |
| 20260507053434 | 3 | 199 | 0.0 | 0.0 | 0.00 | 0.00 | 0.00 | 68 | 1014.8 |
| 20260507052933 | 3 | 199 | 0.0 | 0.0 | 0.00 | 0.00 | 0.00 | 67 | 1014.9 |
| 20260507052430 | 3 | 199 | 0.0 | 0.0 | 0.00 | 0.00 | 0.00 | 67 | 1014.8 |
| 20260507051927 | 3 | 199 | 0.0 | 0.0 | 0.00 | 0.00 | 0.00 | 67 | 1015.1 |
| 20260507051424 | 3 | 199 | 0.0 | 0.0 | 0.00 | 0.00 | 0.00 | 67 | 1014.9 |
| 20260507050921 | 3 | 199 | 0.0 | 0.0 | 0.00 | 0.00 | 0.00 | 66 | 1015.0 |
| 20260507050418 | 4 | 199 | 0.0 | 0.0 | 0.00 | 0.00 | 0.00 | 66 | 1014.9 |
| 20260507045915 | 4 | 199 | 0.0 | 0.0 | 0.00 | 0.00 | 0.00 | 66 | 1015.0 |
| 20260507045411 | 4 | 199 | 0.0 | 0.0 | 0.00 | 0.00 | 0.00 | 66 | 1015.1 |
| 20260507044909 | 4 | 199 | 0.0 | 0.0 | 0.00 | 0.00 | 0.00 | 65 | 1015.1 |
| 20260507044405 | 4 | 199 | 0.0 | 0.0 | 0.00 | 0.00 | 0.00 | 66 | 1015.0 |
| 20260507043901 | 4 | 199 | 0.0 | 0.0 | 0.00 | 0.00 | 0.00 | 66 | 1014.9 |
| 20260507043358 | 4 | 199 | 0.0 | 0.0 | 0.00 | 0.00 | 0.00 | 65 | 1015.2 |
| 20260507042854 | 4 | 199 | 0.0 | 0.0 | 0.00 | 0.00 | 0.00 | 66 | 1015.2 |
| 20260507042350 | 4 | 199 | 0.0 | 0.0 | 0.00 | 0.00 | 0.00 | 66 | 1015.3 |
| 20260507041847 | 4 | 199 | 0.0 | 0.0 | 0.00 | 0.00 | 0.00 | 65 | 1015.2 |
| 20260507041343 | 4 | 199 | 0.0 | 0.0 | 0.00 | 0.00 | 0.00 | 65 | 1015.3 |
| 20260507040841 | 4 | 199 | 0.0 | 0.0 | 0.00 | 0.00 | 0.00 | 64 | 1015.3 |
| 20260507040336 | 4 | 199 | 0.0 | 0.0 | 0.00 | 0.00 | 0.00 | 64 | 1015.4 |
| 20260507035832 | 4 | 199 | 0.0 | 0.0 | 0.00 | 0.00 | 0.00 | 64 | 1015.3 |
| 20260507035328 | 4 | 199 | 0.0 | 0.0 | 0.00 | 0.00 | 0.00 | 63 | 1015.3 |
| 20260507034826 | 3 | 199 | 0.0 | 0.0 | 0.00 | 0.00 | 0.00 | 63 | 1015.4 |
| 20260507034322 | 3 | 199 | 0.0 | 0.0 | 0.00 | 0.00 | 0.00 | 63 | 1015.3 |
| 20260507033821 | 3 | 199 | 0.0 | 0.0 | 0.00 | 0.00 | 0.00 | 63 | 1015.6 |
| 20260507033318 | 3 | 199 | 0.0 | 0.0 | 0.00 | 0.00 | 0.00 | 62 | 1015.4 |
| 20260507032815 | 3 | 199 | 0.0 | 0.0 | 0.00 | 0.00 | 0.00 | 62 | 1015.3 |
| 20260507032311 | 3 | 199 | 0.0 | 0.0 | 0.00 | 0.00 | 0.00 | 62 | 1015.4 |
| 20260507031808 | 3 | 199 | 0.0 | 0.0 | 0.00 | 0.00 | 0.00 | 63 | 1015.5 |
| 20260507031305 | 3 | 199 | 0.0 | 0.0 | 0.00 | 0.00 | 0.00 | 63 | 1015.5 |
| 20260507030801 | 3 | 199 | 0.0 | 0.0 | 0.00 | 0.00 | 0.00 | 63 | 1015.7 |
| 20260507030259 | 3 | 199 | 0.0 | 0.0 | 0.00 | 0.00 | 0.00 | 62 | 1015.7 |
| 20260507025756 | 3 | 199 | 0.0 | 0.0 | 0.00 | 0.00 | 0.00 | 63 | 1015.5 |
| 20260507025253 | 3 | 199 | 0.0 | 0.0 | 0.00 | 0.00 | 0.00 | 63 | 1015.7 |
| 20260507024751 | 3 | 199 | 0.0 | 0.0 | 0.00 | 0.00 | 0.00 | 62 | 1015.5 |
| 20260507024248 | 3 | 199 | 0.0 | 0.0 | 0.00 | 0.00 | 0.00 | 61 | 1015.7 |
| 20260507023743 | 3 | 199 | 0.0 | 0.0 | 0.00 | 0.00 | 0.00 | 60 | 1015.5 |
| 20260507023240 | 3 | 199 | 0.0 | 0.0 | 0.00 | 0.00 | 0.00 | 60 | 1015.6 |
| 20260507022738 | 3 | 199 | 0.0 | 0.0 | 0.00 | 0.00 | 0.00 | 59 | 1015.6 |
| 20260507022234 | 4 | 202 | 0.0 | 0.0 | 0.00 | 0.00 | 0.00 | 57 | 1015.4 |
| 20260507021730 | 4 | 207 | 0.0 | 1.6 | 0.00 | 0.00 | 0.00 | 57 | 1015.7 |
| 20260507021226 | 5 | 200 | 0.0 | 0.0 | 0.00 | 0.00 | 0.00 | 54 | 1015.7 |
| 20260507020724 | 5 | 199 | 0.0 | 0.0 | 0.00 | 0.00 | 0.00 | 54 | 1015.5 |
| 20260507020220 | 5 | 202 | 0.0 | 0.0 | 0.00 | 0.00 | 0.00 | 53 | 1015.7 |
| 20260507015718 | 5 | 204 | 0.0 | 0.0 | 0.00 | 0.00 | 0.00 | 53 | 1015.7 |
| 20260507015215 | 5 | 200 | 0.0 | 1.6 | 0.00 | 0.00 | 0.00 | 53 | 1015.7 |
| 20260507014712 | 5 | 200 | 0.0 | 1.6 | 0.00 | 0.00 | 0.00 | 51 | 1015.5 |
| 20260507014208 | 5 | 232 | 3.2 | 3.2 | 0.00 | 0.00 | 0.00 | 51 | 1015.7 |
| 20260507013705 | 5 | 203 | 0.0 | 1.6 | 0.00 | 0.00 | 0.00 | 51 | 1015.4 |
| 20260507013202 | 6 | 205 | 1.6 | 1.6 | 0.00 | 0.00 | 0.00 | 51 | 1015.4 |
| 20260507012700 | 6 | 212 | 1.6 | 3.2 | 0.00 | 0.00 | 0.00 | 50 | 1015.6 |
| 20260507012155 | 6 | 200 | 0.0 | 3.2 | 0.00 | 0.00 | 0.00 | 50 | 1015.6 |
| 20260507011653 | 6 | 229 | 1.6 | 3.2 | 0.00 | 0.00 | 0.00 | 50 | 1015.6 |
| 20260507011149 | 6 | 223 | 1.6 | 3.2 | 0.00 | 0.00 | 0.00 | 49 | 1015.5 |
| 20260507010644 | 6 | 178 | 1.6 | 3.2 | 0.00 | 0.00 | 0.00 | 49 | 1015.5 |
| 20260507010140 | 6 | 215 | 3.2 | 3.2 | 0.00 | 0.00 | 0.00 | 48 | 1015.5 |
| 20260507005638 | 6 | 260 | 4.8 | 8.0 | 0.00 | 0.00 | 0.00 | 48 | 1015.6 |
| 20260507005133 | 6 | 283 | 6.4 | 8.0 | 0.00 | 0.00 | 0.00 | 48 | 1015.6 |
| 20260507004631 | 6 | 269 | 4.8 | 8.0 | 0.00 | 0.00 | 0.00 | 47 | 1015.5 |
| 20260507004128 | 6 | 236 | 4.8 | 8.0 | 0.00 | 0.00 | 0.00 | 47 | 1015.7 |
| 20260507003624 | 7 | 284 | 4.8 | 8.0 | 0.00 | 0.00 | 0.00 | 47 | 1015.5 |
| 20260507003119 | 7 | 277 | 8.0 | 9.7 | 0.00 | 0.00 | 0.00 | 46 | 1015.5 |
| 20260507002616 | 7 | 251 | 3.2 | 9.7 | 0.00 | 0.00 | 0.00 | 46 | 1015.6 |
| 20260507002111 | 7 | 229 | 9.7 | 14.5 | 0.00 | 0.00 | 0.00 | 46 | 1015.7 |
| 20260507001608 | 7 | 222 | 3.2 | 8.0 | 0.00 | 0.00 | 0.00 | 47 | 1015.6 |
| 20260507001106 | 7 | 246 | 4.8 | 4.8 | 0.00 | 0.00 | 0.00 | 48 | 1015.6 |
| 20260507000602 | 7 | 212 | 1.6 | 8.0 | 0.00 | 0.00 | 0.00 | 48 | 1015.7 |
| 20260507000058 | 7 | 256 | 3.2 | 8.0 | 0.00 | 0.00 | 0.00 | 48 | 1015.8 |
| 20260506235556 | 7 | 339 | 6.4 | 8.0 | 0.00 | 0.00 | 0.00 | 47 | 1015.7 |
| 20260506235050 | 7 | 279 | 4.8 | 11.3 | 0.00 | 0.00 | 0.00 | 46 | 1015.9 |
| 20260506234548 | 7 | 234 | 3.2 | 4.8 | 0.00 | 0.00 | 0.00 | 47 | 1015.8 |
| 20260506234045 | 7 | 341 | 8.0 | 11.3 | 0.00 | 0.00 | 0.00 | 47 | 1016.0 |
| 20260506233542 | 7 | 272 | 4.8 | 12.9 | 0.00 | 0.00 | 0.00 | 47 | 1015.9 |
| 20260506233039 | 7 | 336 | 8.0 | 12.9 | 0.00 | 0.00 | 0.00 | 47 | 1016.0 |
| 20260506232535 | 7 | 305 | 6.4 | 8.0 | 0.00 | 0.00 | 0.00 | 47 | 1016.1 |
| 20260506232031 | 7 | 306 | 4.8 | 11.3 | 0.00 | 0.00 | 0.00 | 47 | 1016.0 |
| 20260506231528 | 7 | 196 | 4.8 | 9.7 | 0.00 | 0.00 | 0.00 | 47 | 1015.9 |
| 20260506231026 | 7 | 204 | 3.2 | 8.0 | 0.00 | 0.00 | 0.00 | 47 | 1016.1 |
| 20260506230522 | 7 | 341 | 6.4 | 9.7 | 0.00 | 0.00 | 0.00 | 47 | 1016.0 |
| 20260506230020 | 7 | 283 | 6.4 | 11.3 | 0.00 | 0.00 | 0.00 | 47 | 1016.0 |
| 20260506225517 | 7 | 278 | 6.4 | 12.9 | 0.00 | 0.00 | 0.00 | 46 | 1016.0 |
| 20260506225013 | 7 | 211 | 3.2 | 8.0 | 0.00 | 0.00 | 0.00 | 47 | 1016.1 |
| 20260506224510 | 7 | 264 | 6.4 | 11.3 | 0.00 | 0.00 | 0.00 | 46 | 1015.9 |
| 20260506224006 | 7 | 286 | 6.4 | 8.0 | 0.00 | 0.00 | 0.00 | 47 | 1016.0 |
| 20260506223502 | 7 | 320 | 4.8 | 8.0 | 0.00 | 0.00 | 0.00 | 48 | 1016.1 |
| 20260506222959 | 7 | 146 | 1.6 | 8.0 | 0.00 | 0.00 | 0.00 | 48 | 1016.1 |
| 20260506222456 | 7 | 312 | 4.8 | 11.3 | 0.00 | 0.00 | 0.00 | 47 | 1016.0 |
| 20260506221952 | 7 | 315 | 6.4 | 9.7 | 0.00 | 0.00 | 0.00 | 48 | 1016.1 |
| 20260506221449 | 7 | 298 | 8.0 | 12.9 | 0.00 | 0.00 | 0.00 | 47 | 1016.1 |
| 20260506220948 | 7 | 314 | 4.8 | 8.0 | 0.00 | 0.00 | 0.00 | 47 | 1016.2 |
| 20260506220443 | 7 | 223 | 6.4 | 11.3 | 0.00 | 0.00 | 0.00 | 48 | 1016.0 |
| 20260506215939 | 7 | 267 | 4.8 | 8.0 | 0.00 | 0.00 | 0.00 | 48 | 1016.1 |
| 20260506215436 | 6 | 296 | 4.8 | 8.0 | 0.00 | 0.00 | 0.00 | 48 | 1016.4 |
| 20260506214931 | 7 | 330 | 8.0 | 12.9 | 0.00 | 0.00 | 0.00 | 48 | 1016.4 |
| 20260506214429 | 7 | 306 | 4.8 | 8.0 | 0.00 | 0.00 | 0.00 | 49 | 1016.4 |
| 20260506213926 | 7 | 271 | 8.0 | 20.9 | 0.00 | 0.00 | 0.00 | 47 | 1016.4 |
| 20260506213424 | 7 | 287 | 9.7 | 12.9 | 0.00 | 0.00 | 0.00 | 49 | 1016.3 |
| 20260506212921 | 6 | 281 | 4.8 | 9.7 | 0.00 | 0.00 | 0.00 | 49 | 1016.6 |
| 20260506212417 | 6 | 236 | 3.2 | 9.7 | 0.00 | 0.00 | 0.00 | 49 | 1016.5 |
| 20260506211912 | 7 | 223 | 6.4 | 9.7 | 0.00 | 0.00 | 0.00 | 48 | 1016.5 |
| 20260506211408 | 7 | 234 | 4.8 | 8.0 | 0.00 | 0.00 | 0.00 | 50 | 1016.4 |
| 20260506210905 | 6 | 334 | 9.7 | 11.3 | 0.00 | 0.00 | 0.00 | 50 | 1016.6 |
| 20260506210402 | 6 | 228 | 3.2 | 8.0 | 0.00 | 0.00 | 0.00 | 50 | 1016.6 |
| 20260506205859 | 6 | 230 | 4.8 | 12.9 | 0.00 | 0.00 | 0.00 | 51 | 1016.7 |
| 20260506205355 | 6 | 214 | 1.6 | 4.8 | 0.00 | 0.00 | 0.00 | 51 | 1016.7 |
| 20260506204851 | 6 | 20 | 6.4 | 9.7 | 0.00 | 0.00 | 0.00 | 51 | 1016.9 |
| 20260506204349 | 6 | 289 | 9.7 | 16.1 | 0.00 | 0.00 | 0.00 | 51 | 1016.8 |
| 20260506203847 | 6 | 332 | 6.4 | 17.7 | 0.00 | 0.00 | 0.00 | 51 | 1016.7 |
| 20260506203344 | 6 | 246 | 3.2 | 11.3 | 0.00 | 0.00 | 0.00 | 52 | 1016.8 |
| 20260506202840 | 6 | 289 | 6.4 | 9.7 | 0.00 | 0.00 | 0.00 | 51 | 1016.8 |
| 20260506202338 | 6 | 204 | 3.2 | 9.7 | 0.00 | 0.00 | 0.00 | 51 | 1016.9 |
| 20260506201834 | 6 | 251 | 9.7 | 12.9 | 0.00 | 0.00 | 0.00 | 52 | 1017.0 |
| 20260506201332 | 6 | 287 | 8.0 | 22.5 | 0.00 | 0.00 | 0.00 | 51 | 1017.1 |
| 20260506200828 | 6 | 290 | 8.0 | 11.3 | 0.00 | 0.00 | 0.00 | 52 | 1016.9 |
| 20260506200324 | 6 | 268 | 6.4 | 12.9 | 0.00 | 0.00 | 0.00 | 50 | 1016.9 |
| 20260506195820 | 6 | 316 | 4.8 | 9.7 | 0.00 | 0.00 | 0.00 | 52 | 1016.9 |
| 20260506195318 | 6 | 283 | 6.4 | 11.3 | 0.00 | 0.00 | 0.00 | 51 | 1017.1 |
| 20260506194815 | 6 | 349 | 6.4 | 8.0 | 0.00 | 0.00 | 0.00 | 52 | 1016.9 |
| 20260506194311 | 6 | 223 | 1.6 | 4.8 | 0.00 | 0.00 | 0.00 | 51 | 1017.2 |
| 20260506193809 | 5 | 254 | 8.0 | 12.9 | 0.00 | 0.00 | 0.00 | 51 | 1017.0 |
| 20260506193306 | 5 | 217 | 3.2 | 8.0 | 0.00 | 0.00 | 0.00 | 52 | 1017.0 |
| 20260506192802 | 5 | 267 | 6.4 | 11.3 | 0.00 | 0.00 | 0.00 | 52 | 1016.9 |
| 20260506192259 | 5 | 315 | 4.8 | 11.3 | 0.00 | 0.00 | 0.00 | 53 | 1016.9 |
| 20260506191756 | 5 | 306 | 8.0 | 9.7 | 0.00 | 0.00 | 0.00 | 52 | 1017.0 |
| 20260506191252 | 5 | 268 | 4.8 | 8.0 | 0.00 | 0.00 | 0.00 | 53 | 1017.1 |
| 20260506190749 | 5 | 211 | 1.6 | 8.0 | 0.00 | 0.00 | 0.00 | 53 | 1017.0 |
| 20260506190245 | 6 | 247 | 12.9 | 14.5 | 0.00 | 0.00 | 0.00 | 51 | 1017.0 |
| 20260506185743 | 5 | 283 | 4.8 | 14.5 | 0.00 | 0.00 | 0.00 | 52 | 1016.9 |
| 20260506185239 | 6 | 307 | 9.7 | 14.5 | 0.00 | 0.00 | 0.00 | 51 | 1017.0 |
| 20260506184736 | 5 | 323 | 8.0 | 12.9 | 0.00 | 0.00 | 0.00 | 51 | 1017.0 |
| 20260506184234 | 6 | 256 | 9.7 | 12.9 | 0.00 | 0.00 | 0.00 | 50 | 1016.7 |
| 20260506183731 | 5 | 340 | 6.4 | 8.0 | 0.00 | 0.00 | 0.00 | 52 | 1017.0 |
| 20260506183226 | 5 | 287 | 4.8 | 11.3 | 0.00 | 0.00 | 0.00 | 51 | 1017.1 |
| 20260506182723 | 5 | 232 | 1.6 | 4.8 | 0.00 | 0.00 | 0.00 | 51 | 1017.0 |
| 20260506182220 | 5 | 261 | 8.0 | 11.3 | 0.00 | 0.00 | 0.00 | 52 | 1017.1 |
| 20260506181718 | 5 | 310 | 4.8 | 9.7 | 0.00 | 0.00 | 0.00 | 50 | 1017.1 |
| 20260506181211 | 5 | 272 | 8.0 | 12.9 | 0.00 | 0.00 | 0.00 | 51 | 1017.1 |
| 20260506180708 | 5 | 286 | 6.4 | 16.1 | 0.00 | 0.00 | 0.00 | 51 | 1017.0 |
| 20260506180203 | 5 | 335 | 6.4 | 11.3 | 0.00 | 0.00 | 0.00 | 52 | 1017.1 |
| 20260506175700 | 5 | 315 | 6.4 | 17.7 | 0.00 | 0.00 | 0.00 | 51 | 1017.0 |
| 20260506175157 | 5 | 287 | 4.8 | 9.7 | 0.00 | 0.00 | 0.00 | 52 | 1017.2 |
| 20260506174655 | 5 | 333 | 6.4 | 11.3 | 0.00 | 0.00 | 0.00 | 52 | 1017.1 |
| 20260506174151 | 5 | 313 | 9.7 | 11.3 | 0.00 | 0.00 | 0.00 | 51 | 1017.3 |
| 20260506173649 | 5 | 311 | 8.0 | 12.9 | 0.00 | 0.00 | 0.00 | 51 | 1017.2 |
| 20260506173145 | 5 | 350 | 4.8 | 9.7 | 0.00 | 0.00 | 0.00 | 52 | 1017.3 |
| 20260506172642 | 5 | 307 | 11.3 | 12.9 | 0.00 | 0.00 | 0.00 | 51 | 1017.4 |
| 20260506172139 | 5 | 272 | 6.4 | 16.1 | 0.00 | 0.00 | 0.00 | 51 | 1017.3 |
| 20260506171631 | 5 | 332 | 6.4 | 12.9 | 0.00 | 0.00 | 0.00 | 50 | 1017.5 |
| 20260506171128 | 5 | 316 | 4.8 | 16.1 | 0.00 | 0.00 | 0.00 | 51 | 1017.5 |
| 20260506170625 | 5 | 348 | 9.7 | 12.9 | 0.00 | 0.00 | 0.00 | 51 | 1017.4 |
| 20260506170117 | 5 | 236 | 6.4 | 14.5 | 0.00 | 0.00 | 0.00 | 52 | 1017.5 |
| 20260506165616 | 5 | 327 | 9.7 | 12.9 | 0.00 | 0.00 | 0.00 | 52 | 1017.7 |
| 20260506165111 | 5 | 298 | 8.0 | 9.7 | 0.00 | 0.00 | 0.00 | 52 | 1017.7 |
| 20260506164609 | 5 | 345 | 9.7 | 12.9 | 0.00 | 0.00 | 0.00 | 52 | 1017.8 |
| 20260506164106 | 5 | 322 | 11.3 | 20.9 | 0.00 | 0.00 | 0.00 | 51 | 1017.5 |
| 20260506163602 | 5 | 312 | 4.8 | 9.7 | 0.00 | 0.00 | 0.00 | 52 | 1017.5 |
| 20260506163058 | 5 | 289 | 9.7 | 17.7 | 0.00 | 0.00 | 0.00 | 52 | 1017.5 |
| 20260506162554 | 5 | 349 | 8.0 | 11.3 | 0.00 | 0.00 | 0.00 | 52 | 1017.4 |
| 20260506162051 | 4 | 3 | 6.4 | 14.5 | 0.00 | 0.00 | 0.00 | 52 | 1017.7 |
| 20260506161549 | 4 | 347 | 9.7 | 12.9 | 0.00 | 0.00 | 0.00 | 53 | 1017.7 |
| 20260506161046 | 4 | 314 | 9.7 | 12.9 | 0.00 | 0.00 | 0.00 | 52 | 1017.5 |
| 20260506160543 | 4 | 332 | 6.4 | 16.1 | 0.00 | 0.00 | 0.00 | 52 | 1017.7 |
| 20260506160040 | 4 | 300 | 9.7 | 16.1 | 0.00 | 0.00 | 0.00 | 51 | 1017.5 |
| 20260506155539 | 4 | 266 | 6.4 | 12.9 | 0.00 | 0.00 | 0.00 | 52 | 1017.4 |
| 20260506153715 | 4 | 15 | 4.8 | 12.9 | 0.00 | 0.00 | 0.00 | 51 | 1017.1 |
| 20260506153213 | 5 | 335 | 4.8 | 9.7 | 0.00 | 0.00 | 0.00 | 52 | 1017.2 |
| 20260506152709 | 5 | 293 | 8.0 | 11.3 | 0.00 | 0.00 | 0.00 | 52 | 1017.4 |
| 20260506152207 | 5 | 194 | 1.6 | 11.3 | 0.00 | 0.00 | 0.00 | 52 | 1017.1 |
| 20260506151706 | 4 | 160 | 1.6 | 4.8 | 0.00 | 0.00 | 0.00 | 53 | 1017.4 |
| 20260506151202 | 4 | 299 | 4.8 | 14.5 | 0.00 | 0.00 | 0.00 | 53 | 1017.2 |
| 20260506150658 | 4 | 274 | 4.8 | 4.8 | 0.00 | 0.00 | 0.00 | 55 | 1017.4 |
| 20260506150155 | 4 | 338 | 8.0 | 11.3 | 0.00 | 0.00 | 0.00 | 54 | 1017.2 |
| 20260506145652 | 3 | 9 | 4.8 | 9.7 | 0.00 | 0.00 | 0.00 | 55 | 1017.3 |